When you browse on this site, cookies collect data to enhance your experience and personalize the content and advertising you see.
Visit our Privacy Policy to learn more. By continuing to use the site, you agree to this use of cookies and data.
  • en France
  • Liste des pays
  • À 7 jours
  • Température de l'eau
  • Carte météo
  • Widgets météo
  • user-avatar
    Se connecter

    Météo par heure à Recife

    Ce jour, 6 Décembre, Vendredi

    Heure Température Précipitation Vent Pression Humidité
    00:00 +27°C° 0 mm 2 m/s 757 mmHg 80%
    01:00 +27°C° 0 mm 2 m/s 757 mmHg 82%
    02:00 +26°C° 0 mm 2 m/s 757 mmHg 83%
    03:00 +26°C° 0 mm 2 m/s 756 mmHg 84%
    04:00 +26°C° 0 mm 2 m/s 756 mmHg 85%
    05:00 +27°C° 0 mm 2 m/s 757 mmHg 83%
    06:00 +27°C° 0 mm 2 m/s 757 mmHg 82%
    07:00 +27°C° 0 mm 2 m/s 758 mmHg 80%
    08:00 +29°C° 0 mm 2 m/s 758 mmHg 74%
    09:00 +30°C° 0 mm 3 m/s 758 mmHg 68%
    10:00 +31°C° 0 mm 3 m/s 758 mmHg 62%
    11:00 +33°C° 0 mm 3 m/s 758 mmHg 59%
    12:00 +34°C° 0 mm 3 m/s 758 mmHg 56%
    13:00 +35°C° 0 mm 3 m/s 757 mmHg 52%
    14:00 +34°C° 0 mm 3 m/s 757 mmHg 54%
    15:00 +34°C° 0 mm 4 m/s 756 mmHg 56%
    16:00 +33°C° 0 mm 4 m/s 756 mmHg 59%
    17:00 +32°C° 0 mm 4 m/s 756 mmHg 65%
    18:00 +30°C° 0 mm 4 m/s 756 mmHg 71%
    19:00 +29°C° 0 mm 4 m/s 756 mmHg 77%
    20:00 +28°C° 0 mm 4 m/s 756 mmHg 80%
    21:00 +28°C° 0 mm 4 m/s 757 mmHg 82%
    22:00 +28°C° 0 mm 4 m/s 757 mmHg 84%
    23:00 +27°C° 0 mm 4 m/s 757 mmHg 85%

    Demain, 7 Décembre, Samedi

    Heure Température Précipitation Vent Pression Humidité
    00:00 +27°C° 0 mm 4 m/s 756 mmHg 86%
    01:00 +27°C° 0 mm 3 m/s 756 mmHg 87%
    02:00 +27°C° 0.1 mm 3 m/s 756 mmHg 87%
    03:00 +27°C° 0.1 mm 3 m/s 756 mmHg 87%
    04:00 +27°C° 0.1 mm 3 m/s 755 mmHg 87%
    05:00 +27°C° 0.2 mm 3 m/s 756 mmHg 86%
    06:00 +28°C° 0.2 mm 3 m/s 756 mmHg 84%
    07:00 +28°C° 0.2 mm 3 m/s 757 mmHg 83%
    08:00 +30°C° 0.1 mm 4 m/s 757 mmHg 76%
    09:00 +32°C° 0.1 mm 4 m/s 757 mmHg 69%
    10:00 +33°C° 0.1 mm 4 m/s 757 mmHg 62%
    11:00 +34°C° 0 mm 4 m/s 757 mmHg 59%
    12:00 +34°C° 0 mm 4 m/s 756 mmHg 57%
    13:00 +35°C° 0 mm 4 m/s 756 mmHg 54%
    14:00 +35°C° 0 mm 4 m/s 755 mmHg 56%
    15:00 +34°C° 0 mm 4 m/s 755 mmHg 58%
    16:00 +34°C° 0 mm 4 m/s 755 mmHg 59%
    17:00 +33°C° 0 mm 4 m/s 755 mmHg 65%
    18:00 +30°C° 0 mm 4 m/s 755 mmHg 70%
    19:00 +29°C° 0 mm 4 m/s 755 mmHg 75%
    20:00 +29°C° 0 mm 4 m/s 756 mmHg 77%
    21:00 +29°C° 0 mm 4 m/s 756 mmHg 79%
    22:00 +28°C° 0 mm 4 m/s 757 mmHg 81%
    23:00 +28°C° 0.1 mm 4 m/s 756 mmHg 81%

    Après-demain, 8 Décembre, Dimanche

    Heure Température Précipitation Vent Pression Humidité
    00:00 +28°C° 0.1 mm 4 m/s 756 mmHg 82%
    01:00 +28°C° 0.1 mm 4 m/s 756 mmHg 83%
    02:00 +28°C° 0.1 mm 4 m/s 756 mmHg 83%
    03:00 +28°C° 0.1 mm 4 m/s 756 mmHg 83%
    04:00 +28°C° 0.1 mm 3 m/s 755 mmHg 83%
    05:00 +28°C° 0.1 mm 4 m/s 756 mmHg 81%
    06:00 +28°C° 0.1 mm 4 m/s 756 mmHg 79%
    07:00 +29°C° 0.1 mm 4 m/s 757 mmHg 76%
    08:00 +30°C° 0 mm 4 m/s 757 mmHg 70%
    09:00 +32°C° 0 mm 5 m/s 757 mmHg 63%
    10:00 +33°C° 0 mm 5 m/s 757 mmHg 56%
    11:00 +34°C° 0 mm 5 m/s 757 mmHg 55%
    12:00 +34°C° 0 mm 5 m/s 757 mmHg 53%
    13:00 +34°C° 0 mm 5 m/s 756 mmHg 52%
    14:00 +34°C° 0 mm 5 m/s 756 mmHg 54%
    15:00 +33°C° 0 mm 5 m/s 756 mmHg 56%
    16:00 +33°C° 0 mm 5 m/s 755 mmHg 58%
    17:00 +32°C° 0 mm 5 m/s 756 mmHg 63%
    18:00 +29°C° 0 mm 5 m/s 756 mmHg 68%
    19:00 +28°C° 0 mm 4 m/s 756 mmHg 74%
    20:00 +28°C° 0 mm 4 m/s 757 mmHg 75%
    21:00 +28°C° 0 mm 4 m/s 757 mmHg 77%
    22:00 +27°C° 0 mm 4 m/s 758 mmHg 78%
    23:00 +27°C° 0 mm 4 m/s 757 mmHg 79%

    9 Décembre, Lundi

    Heure Température Précipitation Vent Pression Humidité
    00:00 +27°C° 0 mm 4 m/s 757 mmHg 80%
    01:00 +27°C° 0 mm 3 m/s 757 mmHg 81%
    02:00 +27°C° 0 mm 3 m/s 757 mmHg 82%
    03:00 +27°C° 0 mm 3 m/s 756 mmHg 82%
    04:00 +26°C° 0 mm 4 m/s 756 mmHg 82%
    05:00 +27°C° 0.1 mm 4 m/s 757 mmHg 79%
    06:00 +27°C° 0.1 mm 4 m/s 757 mmHg 76%
    07:00 +28°C° 0.1 mm 4 m/s 757 mmHg 73%
    08:00 +29°C° 0 mm 4 m/s 758 mmHg 67%
    09:00 +30°C° 0 mm 4 m/s 758 mmHg 61%
    10:00 +32°C° 0 mm 4 m/s 758 mmHg 54%
    11:00 +33°C° 0 mm 4 m/s 758 mmHg 53%
    12:00 +33°C° 0 mm 4 m/s 758 mmHg 52%
    13:00 +34°C° 0 mm 4 m/s 757 mmHg 51%
    14:00 +33°C° 0 mm 4 m/s 757 mmHg 52%
    15:00 +33°C° 0 mm 4 m/s 756 mmHg 53%
    16:00 +33°C° 0 mm 4 m/s 756 mmHg 54%
    17:00 +30°C° 0 mm 4 m/s 756 mmHg 60%
    18:00 +29°C° 0 mm 4 m/s 757 mmHg 66%
    19:00 +28°C° 0 mm 3 m/s 757 mmHg 72%
    20:00 +28°C° 0.1 mm 3 m/s 757 mmHg 74%
    21:00 +28°C° 0.1 mm 3 m/s 758 mmHg 76%
    22:00 +27°C° 0.1 mm 3 m/s 758 mmHg 79%
    23:00 +27°C° 0 mm 3 m/s 757 mmHg 80%

    10 Décembre, Mardi

    Heure Température Précipitation Vent Pression Humidité
    00:00 +27°C° 0 mm 3 m/s 757 mmHg 81%
    01:00 +27°C° 0 mm 3 m/s 757 mmHg 82%
    02:00 +26°C° 0 mm 3 m/s 756 mmHg 82%
    03:00 +26°C° 0 mm 3 m/s 756 mmHg 82%
    04:00 +26°C° 0 mm 3 m/s 756 mmHg 82%
    05:00 +26°C° 0 mm 2 m/s 756 mmHg 79%
    06:00 +27°C° 0 mm 2 m/s 757 mmHg 76%
    07:00 +27°C° 0 mm 2 m/s 757 mmHg 74%
    08:00 +29°C° 0.1 mm 3 m/s 757 mmHg 68%
    09:00 +30°C° 0.1 mm 3 m/s 758 mmHg 62%
    10:00 +32°C° 0.1 mm 4 m/s 758 mmHg 57%
    11:00 +33°C° 0.6 mm 4 m/s 758 mmHg 56%
    12:00 +33°C° 0.6 mm 4 m/s 757 mmHg 55%
    13:00 +33°C° 0.6 mm 5 m/s 757 mmHg 54%
    14:00 +33°C° 0.3 mm 5 m/s 756 mmHg 55%
    15:00 +33°C° 0.3 mm 5 m/s 756 mmHg 57%
    16:00 +32°C° 0.3 mm 5 m/s 755 mmHg 59%
    17:00 +30°C° 0.4 mm 5 m/s 756 mmHg 64%
    18:00 +29°C° 0.4 mm 4 m/s 756 mmHg 69%
    19:00 +28°C° 0.4 mm 4 m/s 756 mmHg 73%
    20:00 +28°C° 0.2 mm 4 m/s 757 mmHg 75%
    21:00 +28°C° 0.2 mm 4 m/s 757 mmHg 77%
    22:00 +28°C° 0.2 mm 5 m/s 757 mmHg 79%
    23:00 +27°C° 0 mm 4 m/s 757 mmHg 80%

    11 Décembre, Mercredi

    Heure Température Précipitation Vent Pression Humidité
    00:00 +27°C° 0 mm 4 m/s 757 mmHg 82%
    01:00 +27°C° 0 mm 4 m/s 756 mmHg 83%
    02:00 +27°C° 0.2 mm 4 m/s 756 mmHg 83%
    03:00 +27°C° 0.2 mm 4 m/s 756 mmHg 83%
    04:00 +27°C° 0.2 mm 4 m/s 756 mmHg 83%
    05:00 +27°C° 0.2 mm 4 m/s 756 mmHg 82%
    06:00 +28°C° 0.2 mm 4 m/s 756 mmHg 80%
    07:00 +28°C° 0.2 mm 4 m/s 757 mmHg 79%
    08:00 +29°C° 0.1 mm 4 m/s 757 mmHg 74%
    09:00 +30°C° 0.1 mm 4 m/s 757 mmHg 69%
    10:00 +32°C° 0.1 mm 4 m/s 757 mmHg 65%
    11:00 +32°C° 0.1 mm 4 m/s 757 mmHg 64%
    12:00 +32°C° 0.1 mm 4 m/s 756 mmHg 63%
    13:00 +33°C° 0.1 mm 5 m/s 756 mmHg 62%
    14:00 +32°C° 0 mm 5 m/s 756 mmHg 63%
    15:00 +32°C° 0 mm 5 m/s 755 mmHg 64%
    16:00 +32°C° 0 mm 5 m/s 754 mmHg 65%
    17:00 +30°C° 0 mm 4 m/s 755 mmHg 69%
    18:00 +29°C° 0 mm 4 m/s 755 mmHg 72%
    19:00 +28°C° 0 mm 4 m/s 755 mmHg 75%
    20:00 +28°C° 0 mm 4 m/s 756 mmHg 77%
    21:00 +28°C° 0 mm 4 m/s 756 mmHg 78%
    22:00 +27°C° 0 mm 4 m/s 756 mmHg 79%
    23:00 +27°C° 0.1 mm 4 m/s 756 mmHg 80%
    Voir plus